Tracking 29790 objects as of 12-Oct-2024
HD Live streaming from Space Station
objects crossing your sky now

SL-14 DEB

Track SL-14 DEB now!
10-day predictions


NORAD ID: 45277
Int'l Code: 1991-056P
Perigee: 1,013.7 km
Apogee: 1,275.2 km
Inclination: 82.5 °
Period: 108.1 minutes
Semi major axis: 7515 km
RCS: Unknown
Launch date: August 15, 1991
Source: Commonwealth of Independent States (former USSR) (CIS)
Launch site: PLESETSK MISSILE AND SPACE COMPLEX (PKMTR)

Note: This is SATELLITE DEBRIS
Your satellite tracking list
Your tracking list is empty




NASA's NSSDC Master Catalog

Two Line Element Set (TLE):
1 45277U 91056P   24284.01210743  .00018164  00000-0  34332-1 0  9990
2 45277  82.5456 199.5832 0173922   0.8685 359.2714 13.32512094224352
Source of the keplerian elements: AFSPC